| time (UTC) | temp C | wind direction | speed KPH | gust KPH | rain 1hr cm | rain 24hr cm | rain mn cm | humidity % | barometer mb |
| 20260508192018 | 12 | 293 | 4.8 | 9.7 | 0.00 | 0.18 | 0.18 | 51 | 1009.7 |
| 20260508191018 | 12 | 225 | 8.0 | 19.3 | 0.00 | 0.18 | 0.18 | 53 | 1009.9 |
| 20260508190038 | 12 | 248 | 4.8 | 9.7 | 0.00 | 0.18 | 0.18 | 58 | 1009.9 |
| 20260508185018 | 11 | 203 | 8.0 | 14.5 | 0.00 | 0.18 | 0.18 | 58 | 1010.1 |
| 20260508184018 | 11 | 225 | 9.7 | 17.7 | 0.00 | 0.18 | 0.18 | 60 | 1010.2 |
| 20260508183018 | 11 | 23 | 3.2 | 9.7 | 0.00 | 0.18 | 0.18 | 61 | 1010.3 |
| 20260508182018 | 10 | 293 | 3.2 | 6.4 | 0.00 | 0.18 | 0.18 | 64 | 1010.3 |
| 20260508181018 | 10 | 293 | 4.8 | 11.3 | 0.00 | 0.18 | 0.18 | 62 | 1010.5 |
| 20260508180038 | 10 | 293 | 8.0 | 14.5 | 0.00 | 0.18 | 0.18 | 58 | 1010.3 |
| 20260508175018 | 10 | 225 | 6.4 | 14.5 | 0.00 | 0.18 | 0.18 | 60 | 1010.4 |
| 20260508174038 | 10 | 225 | 11.3 | 19.3 | 0.00 | 0.18 | 0.18 | 60 | 1010.4 |
| 20260508173018 | 11 | 225 | 3.2 | 9.7 | 0.00 | 0.18 | 0.18 | 60 | 1010.4 |
| 20260508172018 | 10 | 225 | 8.0 | 22.5 | 0.00 | 0.18 | 0.18 | 63 | 1010.4 |
| 20260508171037 | 10 | 225 | 6.4 | 14.5 | 0.00 | 0.18 | 0.18 | 63 | 1010.7 |
| 20260508170017 | 10 | 248 | 6.4 | 17.7 | 0.00 | 0.18 | 0.18 | 64 | 1010.8 |
| 20260508165017 | 9 | 225 | 4.8 | 9.7 | 0.00 | 0.18 | 0.18 | 63 | 1010.8 |
| 20260508164017 | 9 | 248 | 4.8 | 12.9 | 0.00 | 0.18 | 0.18 | 66 | 1010.6 |
| 20260508163017 | 9 | 248 | 3.2 | 8.0 | 0.00 | 0.18 | 0.18 | 66 | 1010.6 |
| 20260508162017 | 9 | 225 | 4.8 | 11.3 | 0.00 | 0.18 | 0.18 | 66 | 1010.8 |
| 20260508161017 | 10 | 203 | 9.7 | 25.7 | 0.00 | 0.18 | 0.18 | 66 | 1010.8 |
| 20260508160017 | 8 | 225 | 8.0 | 16.1 | 0.00 | 0.18 | 0.18 | 69 | 1010.8 |
| 20260508155037 | 8 | 203 | 8.0 | 16.1 | 0.00 | 0.18 | 0.18 | 72 | 1010.9 |
| 20260508154017 | 8 | 225 | 6.4 | 14.5 | 0.03 | 0.18 | 0.18 | 75 | 1010.8 |
| 20260508153038 | 7 | 225 | 4.8 | 9.7 | 0.05 | 0.18 | 0.18 | 78 | 1010.9 |
| 20260508152017 | 6 | 248 | 9.7 | 19.3 | 0.05 | 0.18 | 0.18 | 78 | 1010.9 |
| 20260508151057 | 6 | 225 | 9.7 | 19.3 | 0.08 | 0.18 | 0.18 | 78 | 1011.0 |
| 20260508150017 | 6 | 203 | 6.4 | 11.3 | 0.08 | 0.18 | 0.18 | 81 | 1010.8 |
| 20260508145037 | 6 | 270 | 8.0 | 19.3 | 0.08 | 0.18 | 0.18 | 80 | 1011.0 |
| 20260508144037 | 6 | 248 | 4.8 | 9.7 | 0.05 | 0.15 | 0.15 | 82 | 1011.1 |
| 20260508143017 | 6 | 248 | 4.8 | 16.1 | 0.05 | 0.13 | 0.13 | 79 | 1010.9 |
| 20260508142017 | 7 | 225 | 8.0 | 20.9 | 0.05 | 0.13 | 0.13 | 78 | 1010.8 |
| 20260508141017 | 7 | 225 | 3.2 | 14.5 | 0.03 | 0.10 | 0.10 | 80 | 1010.7 |
| 20260508135019 | 7 | 248 | 6.4 | 16.1 | 0.03 | 0.10 | 0.10 | 78 | 1010.5 |
| 20260508134019 | 7 | 293 | 6.4 | 14.5 | 0.03 | 0.10 | 0.10 | 78 | 1010.5 |
| 20260508133020 | 7 | 248 | 4.8 | 9.7 | 0.00 | 0.08 | 0.08 | 79 | 1010.4 |
| 20260508132019 | 7 | 293 | 4.8 | 8.0 | 0.00 | 0.08 | 0.08 | 77 | 1010.4 |
| 20260508131039 | 7 | 315 | 6.4 | 12.9 | 0.00 | 0.08 | 0.08 | 75 | 1010.4 |
| 20260508130019 | 7 | 293 | 3.2 | 8.0 | 0.00 | 0.08 | 0.08 | 76 | 1010.2 |
| 20260508125019 | 8 | 315 | 6.4 | 11.3 | 0.00 | 0.08 | 0.08 | 75 | 1010.1 |
| 20260508124018 | 8 | 315 | 3.2 | 4.8 | 0.00 | 0.08 | 0.08 | 76 | 1009.8 |
| 20260508123038 | 7 | 248 | 1.6 | 6.4 | 0.00 | 0.08 | 0.08 | 78 | 1009.5 |
| 20260508122019 | 7 | 248 | 1.6 | 4.8 | 0.00 | 0.08 | 0.08 | 78 | 1009.5 |
| 20260508121018 | 7 | 203 | 3.2 | 6.4 | 0.00 | 0.08 | 0.08 | 80 | 1009.8 |
| 20260508120038 | 7 | 203 | 3.2 | 4.8 | 0.00 | 0.08 | 0.08 | 80 | 1009.7 |
| 20260508115039 | 6 | 225 | 1.6 | 4.8 | 0.00 | 0.08 | 0.08 | 83 | 1009.7 |
| 20260508114018 | 6 | 158 | 3.2 | 9.7 | 0.00 | 0.08 | 0.08 | 84 | 1009.6 |
| 20260508113018 | 5 | 180 | 3.2 | 8.0 | 0.00 | 0.08 | 0.08 | 86 | 1009.8 |
| 20260508112018 | 5 | 180 | 4.8 | 9.7 | 0.00 | 0.08 | 0.08 | 86 | 1009.9 |
| 20260508111018 | 5 | 180 | 4.8 | 9.7 | 0.00 | 0.08 | 0.08 | 87 | 1010.0 |
| 20260508110019 | 5 | 158 | 6.4 | 9.7 | 0.00 | 0.08 | 0.08 | 88 | 1010.0 |
| 20260508105018 | 4 | 180 | 3.2 | 6.4 | 0.00 | 0.08 | 0.08 | 88 | 1010.1 |
| 20260508104018 | 4 | 180 | 3.2 | 8.0 | 0.00 | 0.08 | 0.08 | 88 | 1010.1 |
| 20260508103018 | 3 | 180 | 4.8 | 9.7 | 0.00 | 0.08 | 0.08 | 89 | 1009.9 |
| 20260508102018 | 3 | 158 | 1.6 | 6.4 | 0.00 | 0.08 | 0.08 | 89 | 1009.9 |
| 20260508101018 | 3 | 158 | 3.2 | 4.8 | 0.00 | 0.08 | 0.08 | 88 | 1010.0 |
| 20260508100018 | 3 | 158 | 3.2 | 4.8 | 0.00 | 0.08 | 0.08 | 88 | 1010.0 |
| 20260508095018 | 3 | 158 | 3.2 | 6.4 | 0.00 | 0.08 | 0.08 | 88 | 1009.8 |
| 20260508094018 | 3 | 158 | 3.2 | 6.4 | 0.00 | 0.08 | 0.08 | 88 | 1009.8 |
| 20260508093018 | 3 | 158 | 4.8 | 8.0 | 0.00 | 0.08 | 0.08 | 88 | 1009.7 |
| 20260508092039 | 3 | 180 | 4.8 | 8.0 | 0.00 | 0.08 | 0.08 | 88 | 1009.7 |
| 20260508091018 | 3 | 180 | 4.8 | 9.7 | 0.00 | 0.08 | 0.08 | 87 | 1009.7 |
| 20260508090038 | 3 | 180 | 4.8 | 11.3 | 0.00 | 0.08 | 0.08 | 87 | 1009.7 |
| 20260508085018 | 4 | 180 | 6.4 | 11.3 | 0.00 | 0.08 | 0.08 | 87 | 1009.6 |
| 20260508084138 | 4 | 180 | 4.8 | 9.7 | 0.00 | 0.08 | 0.08 | 87 | 1009.6 |
| 20260508083019 | 4 | 180 | 3.2 | 6.4 | 0.00 | 0.08 | 0.08 | 86 | 1009.6 |
| 20260508082018 | 4 | 158 | 4.8 | 11.3 | 0.00 | 0.08 | 0.08 | 85 | 1009.5 |
| 20260508081018 | 5 | 180 | 4.8 | 11.3 | 0.00 | 0.08 | 0.08 | 85 | 1009.7 |
| 20260508080018 | 5 | 180 | 3.2 | 8.0 | 0.00 | 0.08 | 0.08 | 85 | 1009.7 |
| 20260508075018 | 5 | 180 | 1.6 | 6.4 | 0.03 | 0.08 | 0.08 | 85 | 1009.8 |
| 20260508074017 | 5 | 203 | 1.6 | 4.8 | 0.03 | 0.08 | 0.08 | 85 | 1009.9 |
| 20260508073017 | 5 | 0.0 | 3.2 | 0.03 | 0.08 | 0.08 | 84 | 1009.9 | |
| 20260508072017 | 5 | 203 | 1.6 | 6.4 | 0.08 | 0.08 | 0.08 | 83 | 1009.9 |
| 20260508071057 | 5 | 225 | 1.6 | 6.4 | 0.08 | 0.08 | 0.08 | 82 | 1009.9 |
| 20260508070017 | 5 | 0.0 | 3.2 | 0.08 | 0.08 | 0.08 | 80 | 1009.9 | |
| 20260508065017 | 5 | 248 | 3.2 | 6.4 | 0.05 | 0.05 | 0.05 | 80 | 1010.0 |
| 20260508064018 | 5 | 293 | 8.0 | 19.3 | 0.05 | 0.05 | 0.05 | 79 | 1010.0 |
| 20260508063037 | 6 | 315 | 8.0 | 19.3 | 0.05 | 0.05 | 0.05 | 74 | 1009.9 |
| 20260508062017 | 7 | 293 | 8.0 | 19.3 | 0.00 | 0.00 | 0.00 | 71 | 1009.8 |
| 20260508061017 | 7 | 315 | 4.8 | 12.9 | 0.00 | 0.00 | 0.00 | 68 | 1009.6 |
| 20260508060017 | 7 | 293 | 8.0 | 17.7 | 0.00 | 0.00 | 0.00 | 66 | 1009.5 |
| 20260508055017 | 7 | 293 | 8.0 | 14.5 | 0.00 | 0.00 | 0.00 | 63 | 1009.3 |
| 20260508054017 | 7 | 293 | 3.2 | 6.4 | 0.00 | 0.00 | 0.00 | 62 | 1009.3 |
| 20260508053038 | 6 | 0.0 | 3.2 | 0.00 | 0.00 | 0.00 | 67 | 1009.3 | |
| 20260508052017 | 6 | 0.0 | 3.2 | 0.00 | 0.00 | 0.00 | 68 | 1009.2 | |
| 20260508051017 | 6 | 158 | 1.6 | 3.2 | 0.00 | 0.00 | 0.00 | 68 | 1009.2 |
| 20260508050017 | 6 | 0.0 | 1.6 | 0.00 | 0.00 | 0.00 | 69 | 1009.3 | |
| 20260508045017 | 6 | 0.0 | 1.6 | 0.00 | 0.00 | 0.00 | 69 | 1009.3 | |
| 20260508044037 | 6 | 158 | 1.6 | 4.8 | 0.00 | 0.00 | 0.00 | 68 | 1009.2 |
| 20260508043017 | 6 | 0.0 | 3.2 | 0.00 | 0.00 | 0.00 | 68 | 1009.3 | |
| 20260508042019 | 6 | 158 | 3.2 | 4.8 | 0.00 | 0.00 | 0.00 | 68 | 1009.2 |
| 20260508041039 | 6 | 180 | 3.2 | 4.8 | 0.00 | 0.00 | 0.00 | 68 | 1009.2 |
| 20260508040017 | 6 | 158 | 1.6 | 4.8 | 0.00 | 0.00 | 0.00 | 67 | 1009.2 |
| 20260508035017 | 6 | 158 | 1.6 | 3.2 | 0.00 | 0.00 | 0.00 | 68 | 1009.1 |
| 20260508034017 | 6 | 158 | 4.8 | 6.4 | 0.00 | 0.00 | 0.00 | 68 | 1009.2 |
| 20260508033017 | 6 | 158 | 3.2 | 6.4 | 0.00 | 0.00 | 0.00 | 67 | 1009.1 |
| 20260508032017 | 6 | 158 | 1.6 | 4.8 | 0.00 | 0.00 | 0.00 | 64 | 1008.9 |
| 20260508031019 | 6 | 225 | 1.6 | 4.8 | 0.00 | 0.00 | 0.00 | 61 | 1008.9 |
| 20260508030018 | 6 | 225 | 1.6 | 4.8 | 0.00 | 0.00 | 0.00 | 62 | 1008.9 |
| 20260508025019 | 7 | 225 | 1.6 | 4.8 | 0.00 | 0.00 | 0.00 | 62 | 1008.7 |
| 20260508024018 | 7 | 248 | 1.6 | 3.2 | 0.00 | 0.00 | 0.00 | 59 | 1008.5 |
| 20260508023019 | 7 | 225 | 1.6 | 1.6 | 0.00 | 0.00 | 0.00 | 58 | 1008.5 |
| 20260508022018 | 7 | 0.0 | 1.6 | 0.00 | 0.00 | 0.00 | 57 | 1008.5 | |
| 20260508021039 | 8 | 0.0 | 3.2 | 0.00 | 0.00 | 0.00 | 54 | 1008.8 | |
| 20260508020039 | 8 | 0.0 | 1.6 | 0.00 | 0.00 | 0.00 | 53 | 1008.8 | |
| 20260508015018 | 8 | 248 | 1.6 | 3.2 | 0.00 | 0.00 | 0.00 | 51 | 1008.8 |
| 20260508014039 | 9 | 225 | 1.6 | 3.2 | 0.00 | 0.00 | 0.00 | 49 | 1008.8 |
| 20260508013018 | 10 | 0.0 | 3.2 | 0.00 | 0.00 | 0.00 | 45 | 1008.8 | |
| 20260508012018 | 10 | 315 | 3.2 | 6.4 | 0.00 | 0.00 | 0.00 | 43 | 1008.7 |
| 20260508011019 | 10 | 315 | 3.2 | 8.0 | 0.00 | 0.00 | 0.00 | 44 | 1008.7 |
| 20260508010018 | 10 | 315 | 3.2 | 6.4 | 0.00 | 0.00 | 0.00 | 42 | 1008.7 |
| 20260508005018 | 10 | 293 | 3.2 | 8.0 | 0.00 | 0.00 | 0.00 | 43 | 1008.5 |
| 20260508004038 | 10 | 293 | 4.8 | 8.0 | 0.00 | 0.00 | 0.00 | 42 | 1008.4 |
| 20260508003018 | 10 | 315 | 4.8 | 11.3 | 0.00 | 0.00 | 0.00 | 42 | 1008.5 |
| 20260508002019 | 10 | 270 | 3.2 | 9.7 | 0.00 | 0.00 | 0.00 | 42 | 1008.4 |
| 20260508001018 | 11 | 293 | 4.8 | 11.3 | 0.00 | 0.00 | 0.00 | 40 | 1008.2 |
| 20260508000038 | 11 | 293 | 4.8 | 8.0 | 0.00 | 0.00 | 0.00 | 41 | 1008.1 |
| 20260507235018 | 11 | 293 | 4.8 | 8.0 | 0.00 | 0.00 | 0.00 | 41 | 1008.1 |
| 20260507234018 | 11 | 293 | 4.8 | 11.3 | 0.00 | 0.00 | 0.00 | 39 | 1008.1 |
| 20260507233018 | 11 | 315 | 4.8 | 9.7 | 0.00 | 0.00 | 0.00 | 40 | 1008.0 |
| 20260507232038 | 11 | 293 | 6.4 | 11.3 | 0.00 | 0.00 | 0.00 | 41 | 1008.0 |
| 20260507231018 | 11 | 338 | 6.4 | 14.5 | 0.00 | 0.00 | 0.00 | 39 | 1008.0 |
| 20260507230018 | 11 | 338 | 8.0 | 17.7 | 0.00 | 0.00 | 0.00 | 39 | 1008.0 |
| 20260507225018 | 12 | 338 | 11.3 | 20.9 | 0.00 | 0.00 | 0.00 | 38 | 1008.0 |
| 20260507224018 | 12 | 23 | 9.7 | 19.3 | 0.00 | 0.00 | 0.00 | 37 | 1007.9 |
| 20260507223017 | 12 | 338 | 9.7 | 19.3 | 0.00 | 0.00 | 0.00 | 37 | 1007.9 |
| 20260507222018 | 12 | 315 | 9.7 | 17.7 | 0.00 | 0.00 | 0.00 | 37 | 1007.9 |
| 20260507221018 | 12 | 338 | 9.7 | 22.5 | 0.00 | 0.00 | 0.00 | 38 | 1007.8 |
| 20260507220018 | 12 | 338 | 9.7 | 19.3 | 0.00 | 0.00 | 0.00 | 38 | 1007.9 |
| 20260507215018 | 12 | 338 | 11.3 | 20.9 | 0.00 | 0.00 | 0.00 | 37 | 1008.0 |
| 20260507214017 | 12 | 338 | 11.3 | 19.3 | 0.00 | 0.00 | 0.00 | 36 | 1008.0 |
| 20260507213038 | 12 | 338 | 12.9 | 25.7 | 0.00 | 0.00 | 0.00 | 35 | 1008.1 |
| 20260507212018 | 12 | 338 | 11.3 | 22.5 | 0.00 | 0.00 | 0.00 | 38 | 1008.1 |
| 20260507211038 | 12 | 315 | 9.7 | 20.9 | 0.00 | 0.00 | 0.00 | 37 | 1008.1 |
| 20260507210017 | 12 | 293 | 11.3 | 17.7 | 0.00 | 0.00 | 0.00 | 36 | 1008.0 |
| 20260507205018 | 12 | 315 | 11.3 | 22.5 | 0.00 | 0.00 | 0.00 | 36 | 1008.1 |
| 20260507204017 | 12 | 338 | 12.9 | 24.1 | 0.00 | 0.00 | 0.00 | 35 | 1008.0 |
| 20260507203058 | 13 | 315 | 11.3 | 22.5 | 0.00 | 0.00 | 0.00 | 35 | 1008.1 |
| 20260507202017 | 13 | 338 | 17.7 | 29.0 | 0.00 | 0.00 | 0.00 | 34 | 1008.1 |
| 20260507201019 | 12 | 338 | 14.5 | 29.0 | 0.00 | 0.00 | 0.00 | 37 | 1008.1 |
| 20260507200017 | 12 | 338 | 16.1 | 30.6 | 0.00 | 0.00 | 0.00 | 36 | 1008.1 |
| 20260507195017 | 12 | 338 | 12.9 | 22.5 | 0.00 | 0.00 | 0.00 | 37 | 1008.2 |
| 20260507194017 | 13 | 338 | 9.7 | 22.5 | 0.00 | 0.00 | 0.00 | 37 | 1008.3 |
| 20260507193017 | 13 | 338 | 12.9 | 25.7 | 0.00 | 0.00 | 0.00 | 36 | 1008.3 |